Regional Weather Roundup
Issued by NWS

Home | Current Version | Previous Version | Text Only | Print | Product List | Glossary Off
Versions: 1 2 3 4 5 6 7 8 9 10 11 12 13 14 15 16 17 18 19 20 21 22 23 24 25 26 27 28 29 30 31 32 33 34 35 36 37 38 39 40 41 42 43 44 45 46 47 48 49 50

000
ASUS43 KLMK 200610
RWRKY
KENTUCKY REGIONAL WEATHER ROUNDUP
NATIONAL WEATHER SERVICE LOUISVILLE KY
200 AM EDT WED SEP 20 2017

NOTE "FAIR" INDICATES FEW OR NO CLOUDS BELOW 12,000 FEET
WITH NO SIGNIFICANT WEATHER AND/OR OBSTRUCTIONS TO VISIBILITY.

KYZ001>023-026-027-061>063-070>075-200700-
WESTERN AND SOUTH CENTRAL KENTUCKY

CITY           SKY/WX    TMP DP  RH WIND       PRES   REMARKS
PADUCAH        CLEAR     77  67  71 S3        29.92R
HENDERSON      CLEAR     71  69  93 S5        29.94R
OWENSBORO      CLEAR     70  69  97 CALM      29.95S
HOPKINSVILLE   CLEAR     71  68  90 CALM      29.95S
BOWLING GREEN  CLEAR     68  68 100 CALM      29.97S FOG
GLASGOW        FOG      N/A N/A N/A CALM      29.98S VSB 1/2
$$

KYZ024-025-028>034-038-045-046-053-200700-
NORTH CENTRAL KENTUCKY

CITY           SKY/WX    TMP DP  RH WIND       PRES   REMARKS
LOUISVILLE/SDF CLEAR     69  68  96 SE3       29.96S
LOUISVILLE/LOU CLEAR     68  68 100 CALM      29.97S FOG
FORT KNOX      FOG       64  64 100 CALM      29.96R VSB 1/2
$$

KYZ035>037-039>044-047>052-055>060-089>105-200700-
NORTHEAST KENTUCKY

CITY           SKY/WX    TMP DP  RH WIND       PRES   REMARKS
LEXINGTON      PTCLDY    67  65  93 CALM      29.99S FOG
COVINGTON      CLEAR     65  65 100 S6        29.98R
FRANKFORT      MOCLDY    64  62  93 CALM      29.97S FOG
$$

KYZ054-064>069-076>088-106>120-200700-
SOUTHEAST KENTUCKY

CITY           SKY/WX    TMP DP  RH WIND       PRES   REMARKS
JACKSON        FOG       67  66  97 CALM      30.01R VSB 1/4
LONDON         CLEAR     65  64  97 CALM      30.01S
SOMERSET       FOG       64  64 100 CALM      30.02S VSB 1
MIDDLESBORO    PTCLDY    64  63  99 CALM      30.03S
MONTICELLO     CLEAR     63  63 100 W10       30.02S FOG
$$





USA.gov is the U.S. government's official web portal to all federal, state and local government web resources and services.